Погода в Фанернике

Россия / Костромская область     57°47′05″N   41°01′51″E
темп.,
°C
ветер,
м/с
пор.,
м/с
влажн.,
%
обл.,
%
осадки,
мм/ч
давл.,
гПа
погр.,
м
28 сентября, вт
вт2800:00+6св4979100 0.1 1027602
03:00+4св49945 0.1 1029293
06:00+2св38976 0.0 1031209
09:00+6всв46765 0.0 1032409
12:00+9всв3456100 0.0 1032936
15:00+11ссв34509 0.0 10321117
18:00+7с226943 0.0 103319
21:00+5ссв23785 0.0 103430
29 сентября, ср
ср2900:00+4ссв22855 0.0 103422
03:00+3с22915 0.0 103525
06:00+2с22935 0.0 103538
09:00+6с247933 0.0 1035268
12:00+11ссв236131 0.0 1035956
15:00+11с2361100 0.0 1034955
18:00+9ссз1172100 0.0 103410
21:00+9сз227790 0.0 103438
30 сентября, чт
чт3000:00+8ссз238484 0.0 103470
03:00+8сз2486100 0.0 1034104
06:00+8сз2589100 0.0 1034156
09:00+9ссз2485100 0.0 1034198
12:00+12сз237018 0.0 1034577
15:00+14сз336342 0.0 1033975
18:00+11сз22835 0.0 103323
21:00+9сз33925 0.0 103349
1 октября, пт
пт100:00+8сз22955 0.0 103436
03:00+7зсз23955 0.0 103440
06:00+6зсз23965 0.0 103445
09:00+10сз34815 0.0 1034249
12:00+14зсз33665 0.0 1033689
15:00+15з346141 0.0 1032927
18:00+10з22765 0.0 103221
21:00+8зсз228492 0.0 103321
2 октября, сб
сб200:00+7з228948 0.0 103316
03:00+6зюз229229 0.0 103317
06:00+5зюз229249 0.0 103321
09:00+9зюз237752 0.0 1033229
12:00+13зюз346235 0.0 1032735
15:00+14юз345761 0.0 10311024
18:00+10ююз22775 0.0 103117
21:00+8ююз34875 0.0 103249